www.pogodaiklimat.ru

Погода и климат >> Архив погоды >> Индия >> Jagdalpur


ПОГОДА в Jagdalpur

  • Прогноз погоды в Jagdalpur
  • Монитор погоды в Jagdalpur
  • Климат города

АРХИВ ПОГОДЫ в Jagdalpur

Время (UTC), дата Ветер
(напр.,м/с)
 
Видим.   Явления Облачность Т
(С)
Тd
(С)
f
(%)
Тe
(С)
Тes
(С)
Комфортность P
(гПа)
Po
(гПа)
Тmin
(С)
Tmax
(С)
R
(мм)
R24
(мм)
S
(см)
18 15.11 С 2 2000 м слабая морось 10/6 600 м
[Sc As op]
+21.4 +20.2 93 +27 +27 душно 1009.2 947.5 0.0
21 15.11 С 1 4000 м {морось} 10/6 600 м
[Sc As trans]
+21.0 +20.0 94 +27 +27 душно 1008.3 946.5 0.0
00 16.11 штиль 0 4000 м {морось} 10/6 600 м
[Sc As trans]
+21.0 +20.0 94 +26 +26 душно 1008.4 946.6 0.0
03 16.11 СВ 2 2000 м мгла 10/8 450 м
[St As trans]
+21.7 +19.1 85 +27 +27 душно 1011.0 949.2 +20.0 0.0
06 16.11 СВ 3 4000 м 10/8 450 м
[St As trans]
+23.6 +20.6 83 +29 +30 душно 1009.9 948.6
09 16.11 СВ 2 4000 м 10/6 450 м
[St As trans]
+24.1 +21.1 83 +30 +32 очень
душно
1007.7 946.8
12 16.11 СВ 1 4000 м 10/6 450 м
[St As trans]
+22.6 +20.8 90 +30 +30 очень
душно
1008.6 947.1 +24.8
15 16.11 СВ 1 4000 м 10/6 450 м
[St As trans]
+22.0 +20.5 91 +28 +28 душно 1005.4 944.0
18 16.11 СВ 1 4000 м 10/6 450 м
[St As trans]
+21.6 +20.1 91 +27 +27 душно 1010.6 948.9
21 16.11 штиль 0 4000 м 10/6 450 м
[St As trans]
+21.6 +20.1 91 +27 +27 душно 1009.3 947.6
00 17.11 штиль 0 4000 м 10/6 450 м
[St As trans]
+21.0 +19.5 91 +25 +25 комфорт 1009.5 947.6
03 17.11 СВ 1 2000 м мгла 10/6 450 м
[St As trans]
+22.1 +20.5 91 +28 +29 душно 1011.8 950.2 +20.2
06 17.11 СВ 1 2000 м мгла 10/6 450 м
[St As trans]
+23.4 +20.7 85 +31 +33 очень
душно
1011.4 950.0
09 17.11 В 1 4000 м 10/6 450 м
[St As trans Ci fib]
+25.4 +21.3 78 +32 +34 очень
душно
1008.7 947.9
12 17.11 штиль 0 4000 м 6/3 750 м
[Sc Ac trans]
+24.0 +21.4 85 +30 +30 очень
душно
1009.6 948.3 +25.6
15 17.11 штиль 0 4000 м 6/3 750 м
[Sc Ac trans]
+22.0 +20.2 90 +28 +28 душно 1011.3 949.5
18 17.11 штиль 0 4000 м 9/4 750 м
[Sc Ac trans]
+21.2 +20.3 95 +26 +26 душно 1011.7 949.9
21 17.11 штиль 0 4000 м 9/4 600 м
[Sc As trans]
+21.0 +20.0 94 +26 +26 душно 1010.4 948.5
00 18.11 штиль 0 1000 м туман на расстоянии 10/5 600 м
[Sc As trans]
+20.0 +19.4 96 +23 +23 комфорт 1010.8 948.7
03 18.11 штиль 0 2000 м дымка {туман} 10/6 450 м
[St As trans]
+21.8 +20.9 95 +28 +29 душно 1013.3 951.4 +18.6
06 18.11 штиль 0 4000 м мгла {туман} 10/6 450 м
[St As trans]
+26.0 +22.0 79 +34 +37 очень
душно
1012.5 951.4
09 18.11 С 1 4000 м 5/5 750 м
[Cu Sc]
+28.6 +23.8 75 +39 +44 очень
душно
1008.7 948.5
12 18.11 С 1 4000 м 8/3 750 м
[Sc Ac trans]
+26.4 +23.0 82 +35 +35 очень
душно
1009.0 948.4 +30.1
15 18.11 штиль 0 4000 м 6/4 750 м
[Sc Ac trans]
+23.8 +21.8 89 +31 +31 очень
душно
1012.0 950.6
18 18.11 штиль 0 4000 м 6/6 750 м
[Sc]
+22.2 +21.0 93 +29 +29 очень
душно
1012.8 951.1
21 18.11 штиль 0 4000 м 5/5 750 м
[Sc]
+21.6 +20.7 95 +27 +27 душно 1011.7 949.9
00 19.11 штиль 0 2000 м мгла 10/0
[As trans]
+21.2 +20.6 96 +26 +26 душно 1011.9 950.1
03 19.11 В 1 1000 м дымка {туман} 10/6 600 м
[Sc As trans]
+21.6 +20.7 95 +27 +28 душно 1014.5 952.6 +19.7
06 19.11 штиль 0 2000 м мгла {туман} 8/5 450 м
[St Ac trans]
+26.6 +22.9 80 +35 +41 очень
душно
1013.2 952.3
09 19.11 ЮЗ 1 4000 м 8/3 750 м
[Sc Ac trans]
+29.0 +23.4 72 +39 +43 очень
душно
1009.7 949.4
12 19.11 штиль 0 4000 м 8/3 750 м
[Sc Ac trans]
+27.6 +23.7 79 +38 +38 очень
душно
1010.3 949.8 +30.6
15 19.11 штиль 0 4000 м ясно +24.2 +22.5 90 +32 +32 очень
душно
1013.6 952.3
18 19.11 штиль 0 4000 м ясно +22.7 +21.7 94 +30 +30 очень
душно
1013.7 952.0
21 19.11 штиль 0 4000 м ясно +21.8 +20.9 95 +28 +28 душно 1012.2 950.4
00 20.11 штиль 0 1000 м туман на расстоянии ясно +21.0 +20.1 95 +26 +26 душно 1013.8 951.8
03 20.11 штиль 0 200 м туман ?/? +21.2 +20.9 98 +27 +27 душно 1016.2 954.1 +19.9
06 20.11 СВ 1 4000 м {туман} 3/3 900 м
[Cu med, cong]
+27.6 +22.8 75 +37 +47 очень
душно
1013.7 953.0
09 20.11 В 1 4000 м 1/1 900 м
[Cu med, cong]
+31.0 +23.7 65 +42 +50 опасность
перегрева
1009.7 949.8
12 20.11 С 1 4000 м 6/1 900 м
[Cu hum Ci sp]
+27.6 +23.1 77 +37 +37 очень
душно
1010.4 949.9 +31.5
15 20.11 штиль 0 4000 м 5/0
[Ci fib]
+24.0 +22.0 89 +31 +31 очень
душно
1013.5 952.0
18 20.11 штиль 0 4000 м 5/0
[Ci fib]
+22.4 +21.2 93 +29 +29 очень
душно
1013.4 952.1
21 20.11 штиль 0 4000 м ясно +21.4 +20.2 93 +27 +27 душно 1013.7 951.8
00 21.11 штиль 0 2000 м дымка ясно +19.6 +18.7 95 +22 +22 комфорт 1012.6 950.4
03 21.11 штиль 0 2000 м мгла {туман} ясно +23.4 +20.4 83 +31 +36 очень
душно
1014.6 953.0 +18.3
06 21.11 СВ 1 4000 м {туман} ясно +28.4 +19.8 60 +35 +49 очень
душно
1012.8 952.3
09 21.11 штиль 0 4000 м 4/1 900 м
[Cu hum Ci fib]
+30.0 +19.3 53 +36 +44 очень
душно
1010.0 949.9
12 21.11 СВ 1 4000 м 4/0
[Ci fib]
+27.6 +19.6 62 +33 +33 очень
душно
1010.1 949.6 +31.0
15 21.11 СВ 1 4000 м 3/0
[Ci fib]
+23.5 +19.1 76 +28 +28 душно 1013.0 951.5
18 21.11 штиль 0 4000 м ясно +21.6 +19.2 86 +27 +27 душно 1013.3 951.4
21 21.11 штиль 0 4000 м ясно +20.8 +19.0 89 +25 +25 комфорт 1012.3 950.3
00 22.11 штиль 0 2000 м дымка 3/0
[Ci fib]
+20.0 +18.6 92 +23 +23 комфорт 1012.4 950.2
03 22.11 штиль 0 2000 м дымка ясно +23.0 +19.4 80 +29 +34 очень
душно
1014.0 952.3 +18.0
06 22.11 штиль 0 4000 м ясно +28.8 +17.9 52 +33 +50 очень
душно
1011.4 951.0
09 22.11 СЗ 1 4000 м 5/5 750 м
[Cu Sc]
+31.0 +17.4 44 +35 +40 очень
душно
1008.3 948.5
12 22.11 штиль 0 4000 м 6/3 600 м
[Sc Ac trans]
+28.0 +20.0 62 +34 +34 очень
душно
1009.2 948.8 +31.6
15 22.11 штиль 0 4000 м 6/4 750 м
[Sc Ac trans]
+25.0 +19.0 69 +30 +30 душно 1011.9 950.7

 

Местоположение метеостанции Jagdalpur (Chhattisgarh, Индия): широта 19.08 долгота 82.03 высота над уровнем моря 553 м.

В архиве по умолчанию представлена погода в Jagdalpur за последнюю неделю. Архивные данные за месяц целиком и за предыдущие месяцы, начиная с января 2011 года, Вы можете получить, выбрав интересующий диапазон дат из раскрывающегося списка и нажав кнопку "Ввод!".

Внимание! Время в таблицах - всемирное. Для получения местного времени необходимо прибавить поправку, которая в Jagdalpur равна 5.5 ч.

Смотрите также архив погоды в соседних городах и на ближайших метеорологических станциях:

Погода в Koraput (Orissa, Индия) (78 км)
Погода в Bhawanipatna (Orissa, Индия) (153 км)
Погода в Titlagarh (Orissa, Индия) (190 км)
Погода в Visakhapatnam (Andhra Pradesh, Индия) (197 км)
Погода в Bhadrachalam (Telangana, Индия) (198 км)
Погода в Tuni (Andhra Pradesh, Индия) (200 км)
Погода в Visakhapatnam Walt (Andhra Pradesh, Индия) (204 км)
Погода в Kalingapatam (Andhra Pradesh, Индия) (236 км)
Погода в Kakinada (Andhra Pradesh, Индия) (238 км)
Погода в Raipur (Chhattisgarh, Индия) (242 км)

Пояснения к столбцам:

Ветер - указаны скорость ветра в м/с - средняя за 10 мин, порывы в срок и между сроками (в фигурных скобках) и направление, откуда дует ветер: С - северный, СВ - северо-восточный, В - восточный, ЮВ - юго-восточный, Ю - южный, ЮЗ - юго-западный, З - западный, СЗ - северо-западный.
Видимость - горизонтальная дальность видимости в метрах или километрах. При видимости от 1 до 10 км при отсутствии осадков обычно наблюдается дымка, при ухудшении видимости до 1 км и менее - туман. В сухую погоду видимость может ухудшаться дымом, пылью или мглою.
Явления - указаны атмосферные явления, наблюдавшиеся в срок или в последний час перед сроком; фигурными скобками обозначены явления, наблюдавшиеся между сроками (за 1-3 часа до срока); квадратными скобками обозначены град или гололедные отложения с указанием их диаметра в мм.
Облачность - указаны через наклонную черту общая и нижняя облачность в баллах и высота нижней границы облаков в метрах; квадратными скобками обозначены формы облаков: Ci - перистые, Cs - перисто-слоистые, Cc - перисто-кучевые, Ac - высококучевые, As - высокослоистые, Sc - слоисто-кучевые, Ns - слоисто-дождевые, Cu - кучевые, Cb - кучево-дождевые. Подробнее классификацию облаков см. в Атласе облаков (PDF).
T - Температура воздуха - температура, измеренная на высоте 2 м над землей.
Td - Температура точки росы - температура, при понижении до которой содержащийся в воздухе водяной пар достигнет насыщения.
f - Относительная влажность воздуха - влажноcть воздуха, измеренная на высоте 2 м над землей.
Te - Эффективная температура - температура, которую ощущает одетый по сезону человек в тени. Характеристика душности погоды. При расчете учитывается влияние влажности воздуха и скорости ветра на теплоощущения человека.
Tes - Эффективная температура на солнце - температура, которую ощущает человек, с поправкой на солнечный нагрев. Характеристика знойности погоды. Зависит от высоты солнца над горизонтом, облачности и скорости ветра. Ночью, в пасмурную погоду, а также при ветре 12 м/с и более поправка равна нулю.
P - Атмосферное давление - приведенное к уровню моря атмосферное давление.
Po - Атмосферное давление - измеренное на уровне метеостанции атмосферное давление.
Tmin - Минимальная температура - минимум температуры воздуха на высоте 2 м над землей.
Tmax - Максимальная температура - максимум температуры воздуха на высоте 2 м над землей.
R - Количество осадков - Количество выпавших осадков за период времени, мм. При наведении курсора мыши на число - период времени, за который выпало указанное количество осадков.
R24 - Количество осадков - Количество выпавших осадков за 24 часа, мм.
S - Снежный покров - Высота снежного покрова, см. При наведении курсора мыши на число - состояние снежного покрова и степень покрытия местности в баллах.